Wetbulb
44.48 46.84 61.04 62.17 62.34 63.03 63.86 64.85 65.61 67.07 68.56 70.24 71.76 72.14 72.78 72.84 72.81 72.29 72.75 72.90 72.90 72.61 73.18 73.49 73.40 73.37 73.06 72.85 72.83 72.46 72.01 71.58 71.34 71.07 71.48 72.19 72.18 72.19 71.95 71.25 71.39 70.87 72.42
44.67 48.92 59.39 60.44 61.15 61.49 62.63 63.40 63.83 64.91 66.18 67.99 69.52 71.37 71.92 72.30 72.81 72.57 72.41 72.80 72.01 72.50 73.13 73.46 73.02 72.87 72.50 72.02 71.46 71.29 71.01 70.62 70.11 69.94 69.54 69.85 70.84 70.68 70.67 70.82 70.36 69.40 70.45
46.56 50.25 52.41 58.80 59.24 60.07 61.31 61.92 62.40 63.30 64.34 65.94 67.48 68.91 70.39 71.60 72.03 72.56 72.24 72.56 72.66 72.52 72.99 73.11 73.10 72.51 72.17 71.67 70.72 70.35 69.93 69.43 68.89 68.65 67.95 66.40 68.17 69.34 68.20 68.12 68.72 69.01 69.25
46.90 48.43 51.67 57.57 58.39 59.27 60.14 60.72 61.22 61.81 62.70 63.67 65.51 66.76 68.36 70.11 71.33 72.22 72.42 72.05 72.29 72.10 72.77 73.05 72.47 72.00 71.59 71.03 70.53 69.95 69.31 68.39 67.77 66.53 63.53 63.76 64.70 68.12 67.19 67.26 67.58 67.72 67.37
45.21 46.18 51.65 56.43 57.66 58.50 58.79 59.26 59.94 60.60 61.17 62.16 63.04 65.15 66.18 67.91 70.24 70.90 72.13 71.84 72.64 72.44 72.11 72.86 71.98 71.62 71.20 70.91 69.57 69.49 68.55 67.59 66.57 63.86 61.78 61.63 61.93 66.73 67.56 66.90 65.94 66.32 66.45
44.36 44.91 49.78 54.84 55.33 56.25 57.18 58.03 58.58 59.37 59.84 60.55 61.10 62.66 64.40 65.65 67.91 68.99 70.07 71.72 72.02 72.15 72.21 71.84 71.89 71.25 70.84 70.51 68.88 69.22 68.02 66.93 64.29 61.37 61.28 63.59 62.25 66.43 66.27 66.21 66.00 66.03 65.98
42.90 44.00 44.67 52.78 53.52 54.24 55.56 56.09 56.79 57.58 58.41 59.02 59.78 60.88 62.70 63.31 65.14 66.47 67.87 69.83 71.40 71.71 71.74 71.99 71.54 70.87 69.97 69.95 67.53 68.16 67.34 65.05 60.28 59.80 60.14 60.69 63.67 65.73 66.69 65.67 66.15 66.28 66.27
42.36 42.91 43.08 47.35 50.34 51.36 53.08 53.85 54.72 55.88 56.68 57.59 58.48 59.51 60.53 61.35 62.78 64.19 65.09 66.37 69.26 71.34 71.70 71.58 71.16 70.46 69.62 68.66 66.68 67.58 66.26 64.00 61.01 59.72 59.82 62.51 66.01 66.42 65.50 65.53 65.95 65.90 65.58
42.50 41.28 40.35 41.51 44.10 47.15 49.65 51.15 52.02 53.54 54.52 55.90 56.97 58.04 57.68 58.02 60.23 61.32 62.38 64.08 66.35 69.26 71.26 71.26 70.79 70.16 69.40 68.38 66.25 67.08 65.57 63.69 59.54 59.98 62.35 61.91 66.98 66.11 66.62 66.79 67.06 67.02 65.87
40.51 39.50 39.01 39.19 40.46 40.21 41.92 48.01 48.87 50.94 52.35 54.05 55.01 55.69 55.73 55.64 57.31 58.36 58.72 61.21 63.75 65.33 68.48 70.79 70.63 70.01 69.38 68.57 66.48 65.79 64.77 63.53 59.77 60.53 61.23 63.53 67.88 67.13 66.53 65.87 66.49 65.53 64.72
39.04 37.99 37.78 38.20 38.59 39.04 40.96 42.28 44.28 47.42 49.25 50.32 50.95 53.07 53.48 52.30 51.98 53.46 56.48 59.05 60.55 62.21 65.35 70.35 70.57 69.82 68.47 66.78 65.55 63.60 63.86 59.68 59.37 60.07 61.47 66.40 66.70 66.78 66.15 65.53 65.83 65.10 65.03
34.67 35.67 36.14 36.63 37.05 37.98 40.41 38.80 39.06 41.18 43.00 44.11 47.10 48.26 50.28 51.07 50.03 52.99 54.88 57.36 58.28 59.29 60.57 64.65 70.06 69.02 66.04 62.18 61.13 61.00 58.09 58.92 59.12 59.77 60.89 66.72 66.67 66.54 65.95 65.51 64.81 63.63 64.15
34.37 34.77 35.50 36.00 36.11 36.37 36.81 37.08 37.62 39.11 41.50 43.05 46.12 45.62 47.04 48.67 48.85 51.31 53.00 55.10 55.21 56.71 56.83 58.27 64.12 67.20 62.13 60.96 58.46 57.21 56.50 58.57 58.57 59.69 62.76 66.41 66.03 66.10 65.54 64.78 64.48 64.12 64.16
32.97 34.00 34.71 35.36 35.14 35.28 35.50 35.46 36.21 37.62 40.68 42.52 44.42 44.15 45.81 46.74 47.59 49.47 51.30 52.37 53.99 55.47 55.58 56.52 57.62 60.34 61.58 60.74 58.21 56.66 55.91 57.91 58.10 59.43 61.92 64.79 66.12 65.36 65.56 64.88 64.19 63.95 63.17
32.06 32.87 33.57 34.56 34.12 34.71 34.16 34.68 35.91 36.79 39.00 41.36 41.41 42.87 44.63 45.28 45.96 48.08 50.19 50.79 52.38 54.81 55.32 55.28 56.25 58.24 60.83 60.00 57.67 56.30 55.20 57.79 58.23 59.18 60.28 62.49 64.96 65.71 65.29 63.52 63.60 63.79 62.77
32.15 31.98 33.33 34.34 33.88 33.75 33.20 33.55 34.89 36.36 38.23 39.40 39.46 41.24 42.82 45.29 44.02 44.52 46.52 48.91 50.34 52.28 54.08 54.36 54.99 56.96 60.78 59.97 57.02 55.86 54.97 57.54 58.19 58.65 59.60 60.77 63.81 64.61 65.21 63.25 62.94 63.23 62.71
30.87 31.97 32.42 33.93 33.44 32.09 32.53 33.21 34.01 35.22 36.99 37.28 38.43 40.08 42.02 41.76 41.13 42.35 44.21 47.24 48.11 49.71 51.21 53.65 54.66 55.64 58.72 59.34 56.95 55.16 54.94 57.26 57.70 58.14 59.10 59.60 61.37 62.34 64.03 63.77 63.88 63.60 63.06
30.33 30.48 31.43 33.54 32.18 31.81 31.49 32.36 33.07 34.00 34.93 36.20 37.51 39.00 39.00 39.59 40.16 40.82 42.98 43.72 46.04 49.20 50.65 52.54 53.45 53.81 54.63 57.56 56.67 54.82 54.47 57.16 57.16 57.56 58.11 58.32 58.62 59.22 62.35 63.81 63.80 63.61 62.95
29.60 29.72 29.64 30.46 30.21 31.02 31.19 31.61 31.97 32.62 33.41 34.96 36.19 37.28 37.37 38.03 39.23 39.06 41.11 42.37 45.12 46.97 48.43 49.74 51.64 53.25 53.09 54.63 57.53 54.89 54.29 56.67 56.96 57.60 56.76 56.72 57.15 57.75 58.21 61.79 62.25 62.66 62.89
28.60 28.60 29.02 29.83 29.63 30.08 30.25 30.16 30.87 30.78 32.06 33.34 34.06 35.45 36.09 36.91 37.93 38.66 39.99 41.65 44.80 45.43 46.12 48.27 49.53 52.28 53.09 54.64 57.84 54.94 55.31 55.07 56.04 56.30 55.61 55.98 56.06 56.78 56.25 57.62 59.58 59.37 60.89
27.42 27.56 27.91 28.28 28.34 28.80 27.55 27.13 27.63 27.15 29.64 30.83 32.47 34.20 34.47 35.70 36.84 37.21 37.99 40.24 40.84 41.71 43.23 45.41 47.49 49.66 52.17 53.71 53.67 53.04 53.01 53.85 54.64 54.27 54.29 54.07 54.60 55.32 55.21 56.03 57.55 57.69 58.70
26.56 26.70 26.83 27.98 28.13 28.50 27.99 27.83 28.21 27.81 29.17 30.32 31.35 32.16 33.45 34.32 35.42 36.03 36.36 36.42 37.82 39.31 41.45 42.40 44.38 45.28 50.94 52.79 51.83 52.45 50.21 52.52 53.83 53.07 52.62 53.81 53.17 53.75 54.14 55.24 56.29 56.48 56.57
24.82 25.02 26.93 27.04 27.44 27.68 27.98 28.10 28.08 28.61 28.51 27.99 28.62 29.50 31.37 32.83 33.88 34.66 34.87 35.06 36.49 38.57 39.14 39.46 41.12 41.80 42.71 48.80 50.03 51.49 49.10 48.58 50.29 50.65 51.77 52.49 52.57 51.85 52.36 53.56 54.24 55.01 55.74
24.79 25.02 26.59 27.25 27.32 27.69 27.22 25.89 24.97 25.73 25.44 26.15 26.82 28.19 29.72 31.08 32.28 33.54 33.96 34.40 34.71 35.84 36.34 37.38 39.71 40.14 41.92 42.46 47.20 50.10 53.55 51.01 48.12 47.00 49.15 49.64 51.53 51.94 51.83 51.47 52.62 52.77 52.55
25.08 24.15 25.04 26.04 26.69 26.65 26.24 25.60 25.01 23.95 25.01 25.69 25.78 25.66 27.00 28.84 30.75 31.80 32.60 32.58 32.37 33.55 34.65 36.31 37.74 39.02 40.69 41.13 42.53 44.94 48.26 51.62 50.29 47.78 46.05 47.47 47.87 50.87 52.55 52.61 52.20 52.05 51.29
24.33 24.28 24.11 25.19 25.99 25.82 25.25 25.30 24.81 23.68 23.56 24.06 24.32 24.49 25.11 26.50 28.53 29.44 30.18 30.20 31.39 31.78 32.32 34.68 36.16 37.12 38.49 39.97 41.07 42.06 43.99 45.55 49.15 48.30 45.82 46.58 47.35 49.64 50.53 51.05 51.03 51.82 50.60
MSLP
1026.51 1026.01 1024.89 1024.29 1023.87 1023.37 1023.00 1022.28 1021.79 1021.05 1020.52 1019.97 1019.49 1019.19 1018.81 1018.54 1018.37 1018.22 1018.08 1018.04 1017.89 1017.76 1017.66 1017.65 1017.77 1017.76 1018.00 1018.02 1018.08 1017.96 1018.24 1018.28 1018.33 1018.47 1018.39 1018.31 1018.30 1018.36 1018.41 1018.43 1018.26 1018.12 1018.05
1026.91 1026.18 1025.48 1024.81 1024.34 1023.97 1023.60 1023.03 1022.44 1021.75 1021.28 1020.84 1020.29 1019.73 1019.33 1019.04 1018.71 1018.43 1018.24 1018.15 1017.99 1017.94 1017.94 1017.89 1018.19 1018.13 1018.27 1018.42 1018.39 1018.41 1018.51 1018.72 1018.78 1018.93 1019.02 1019.07 1018.97 1018.98 1018.98 1018.93 1018.89 1018.87 1018.79
1027.07 1026.53 1026.11 1025.56 1025.03 1024.46 1024.10 1023.60 1023.02 1022.48 1021.98 1021.56 1021.08 1020.52 1019.96 1019.48 1019.04 1018.66 1018.50 1018.30 1018.15 1018.15 1018.14 1018.27 1018.38 1018.57 1018.57 1018.70 1018.79 1018.71 1018.99 1019.18 1019.37 1019.51 1019.59 1019.56 1019.54 1019.55 1019.47 1019.47 1019.44 1019.39 1019.39
1027.58 1027.09 1026.36 1025.92 1025.54 1024.95 1024.47 1023.99 1023.53 1023.04 1022.60 1022.11 1021.65 1021.14 1020.59 1019.89 1019.34 1018.90 1018.67 1018.56 1018.41 1018.40 1018.43 1018.49 1018.70 1018.86 1018.97 1019.03 1019.09 1019.09 1019.18 1019.55 1019.74 1019.86 1020.01 1020.02 1019.85 1019.92 1019.85 1019.82 1019.85 1019.84 1019.73
1027.87 1027.75 1026.81 1026.26 1026.03 1025.47 1025.00 1024.68 1024.21 1023.72 1023.15 1022.69 1022.24 1021.77 1021.25 1020.57 1019.89 1019.51 1019.02 1018.79 1018.70 1018.58 1018.63 1018.70 1018.91 1019.13 1019.25 1019.36 1019.35 1019.50 1019.61 1019.79 1020.02 1020.16 1020.36 1020.37 1020.26 1020.30 1020.32 1020.35 1020.29 1020.28 1020.25
1028.07 1027.95 1027.30 1026.75 1026.51 1026.16 1025.60 1025.10 1024.72 1024.19 1023.64 1023.07 1022.78 1022.35 1021.77 1021.17 1020.51 1020.08 1019.65 1019.10 1018.97 1018.94 1018.89 1018.87 1019.11 1019.33 1019.51 1019.54 1019.73 1019.84 1019.99 1020.17 1020.30 1020.49 1020.70 1020.61 1020.53 1020.50 1020.58 1020.58 1020.67 1020.67 1020.62
1028.30 1028.02 1027.71 1027.18 1027.00 1026.74 1026.22 1025.76 1025.21 1024.80 1024.20 1023.75 1023.17 1022.87 1022.36 1021.80 1021.25 1020.66 1020.20 1019.83 1019.18 1019.06 1019.08 1019.13 1019.32 1019.47 1019.67 1019.76 1020.07 1020.06 1020.31 1020.50 1020.69 1020.72 1020.84 1020.93 1020.77 1020.71 1020.81 1020.80 1020.88 1021.03 1021.05
1028.49 1028.44 1028.24 1027.99 1027.76 1027.59 1026.99 1026.33 1025.83 1025.29 1024.72 1024.11 1023.66 1023.17 1022.74 1022.36 1021.87 1021.25 1020.82 1020.46 1019.81 1019.19 1019.09 1019.18 1019.34 1019.59 1019.75 1019.95 1020.15 1020.25 1020.47 1020.80 1020.90 1020.99 1020.92 1021.01 1020.95 1021.02 1020.96 1021.10 1021.08 1021.28 1021.37
1028.46 1028.43 1028.42 1028.41 1028.11 1028.12 1027.62 1027.16 1026.47 1025.96 1025.35 1024.76 1024.41 1023.80 1023.44 1023.02 1022.40 1021.93 1021.47 1020.91 1020.31 1019.70 1019.22 1019.23 1019.40 1019.56 1019.86 1020.07 1020.24 1020.46 1020.75 1020.95 1021.16 1021.26 1021.17 1021.13 1021.09 1021.17 1021.15 1021.31 1021.28 1021.37 1021.61
1028.82 1028.88 1028.57 1028.30 1028.23 1028.04 1027.74 1027.44 1026.95 1026.37 1025.98 1025.50 1025.06 1024.55 1024.09 1023.59 1023.01 1022.38 1022.07 1021.44 1020.84 1020.37 1019.69 1019.30 1019.42 1019.70 1019.84 1020.18 1020.40 1020.61 1020.94 1021.15 1021.36 1021.44 1021.42 1021.24 1021.07 1021.14 1021.40 1021.63 1021.75 1021.81 1021.93
1029.12 1029.14 1028.99 1028.64 1028.30 1028.19 1027.74 1027.79 1027.48 1026.87 1026.47 1026.05 1025.86 1025.37 1024.62 1024.24 1023.73 1023.18 1022.67 1022.06 1021.37 1020.82 1020.17 1019.35 1019.40 1019.65 1019.99 1020.24 1020.47 1020.76 1021.00 1021.43 1021.46 1021.50 1021.52 1021.30 1021.27 1021.37 1021.63 1021.95 1022.05 1022.22 1022.34
1029.33 1029.24 1029.33 1028.99 1028.82 1028.40 1027.99 1027.96 1027.61 1027.49 1027.43 1026.99 1026.58 1026.17 1025.28 1024.81 1024.53 1023.85 1023.25 1022.57 1021.99 1021.26 1020.66 1020.01 1019.27 1019.64 1020.02 1020.42 1020.65 1020.86 1021.04 1021.41 1021.59 1021.54 1021.48 1021.33 1021.51 1021.60 1021.90 1022.12 1022.33 1022.44 1022.61
1029.57 1029.56 1029.54 1029.20 1029.08 1028.95 1028.80 1028.70 1028.29 1027.99 1027.73 1027.43 1027.05 1026.72 1026.03 1025.35 1024.94 1024.32 1023.78 1023.13 1022.55 1021.82 1021.27 1020.85 1020.06 1019.44 1019.94 1020.31 1020.71 1020.85 1021.10 1021.26 1021.54 1021.66 1021.49 1021.36 1021.53 1021.79 1022.06 1022.30 1022.53 1022.66 1022.87
1029.96 1029.93 1029.82 1029.54 1029.18 1029.05 1029.03 1029.06 1028.89 1028.58 1028.22 1027.79 1027.53 1027.22 1026.53 1025.85 1025.46 1024.99 1024.44 1023.98 1023.34 1022.76 1022.01 1021.48 1021.08 1020.29 1019.76 1020.02 1020.48 1020.80 1021.02 1021.27 1021.37 1021.59 1021.66 1021.53 1021.65 1021.87 1022.16 1022.42 1022.55 1022.82 1023.01
1030.20 1030.21 1029.97 1029.69 1029.59 1029.51 1029.35 1029.36 1028.86 1028.83 1028.83 1028.54 1028.13 1027.66 1026.95 1026.56 1026.26 1025.63 1025.14 1024.68 1024.10 1023.34 1022.60 1021.95 1021.63 1020.68 1020.11 1019.80 1020.26 1020.62 1020.92 1021.12 1021.49 1021.59 1021.74 1021.71 1021.80 1022.07 1022.16 1022.43 1022.61 1022.86 1023.08
1030.24 1030.25 1030.22 1030.33 1030.40 1030.20 1030.06 1029.84 1029.53 1029.29 1029.22 1029.02 1028.69 1028.21 1027.64 1027.18 1026.92 1026.27 1026.01 1025.21 1024.82 1024.15 1023.29 1022.47 1021.65 1021.08 1020.14 1020.04 1020.29 1020.23 1020.74 1020.95 1021.31 1021.71 1021.83 1021.84 1021.86 1022.16 1022.38 1022.51 1022.77 1022.93 1023.13
1030.14 1030.24 1030.22 1030.28 1030.62 1030.84 1030.86 1030.53 1030.15 1029.85 1029.59 1029.33 1028.91 1028.41 1028.08 1027.69 1027.47 1026.89 1026.51 1025.81 1025.29 1024.77 1024.15 1022.78 1022.22 1021.41 1020.63 1020.34 1020.53 1020.34 1020.49 1020.83 1021.13 1021.46 1021.80 1021.92 1021.89 1022.03 1022.49 1022.59 1022.75 1022.99 1023.29
1030.27 1030.53 1030.69 1030.72 1030.95 1030.98 1030.91 1030.73 1030.68 1030.59 1030.43 1029.96 1029.47 1029.07 1028.72 1028.25 1027.77 1027.09 1026.84 1026.52 1026.02 1025.16 1024.60 1023.66 1022.77 1022.20 1021.52 1020.66 1020.73 1020.58 1020.46 1020.55 1020.89 1021.29 1021.61 1021.88 1021.99 1022.05 1022.28 1022.53 1022.81 1022.96 1023.25
1030.55 1030.71 1030.84 1030.98 1031.14 1031.17 1031.21 1031.08 1031.01 1030.86 1030.77 1030.59 1030.21 1029.62 1029.10 1028.74 1028.15 1027.64 1027.37 1026.86 1026.32 1025.43 1025.12 1024.81 1023.37 1022.84 1021.99 1021.06 1020.73 1021.00 1020.83 1020.61 1020.66 1021.05 1021.53 1021.79 1021.92 1022.09 1022.18 1022.45 1022.78 1023.04 1023.23
1030.71 1030.82 1031.01 1031.10 1031.17 1031.19 1031.11 1030.99 1030.93 1030.91 1030.96 1030.87 1030.55 1030.03 1029.55 1029.39 1028.88 1028.26 1027.71 1027.21 1026.65 1025.75 1025.72 1025.00 1023.97 1023.00 1022.20 1021.35 1020.70 1020.97 1021.24 1021.11 1020.84 1020.93 1021.32 1021.49 1021.78 1021.90 1022.22 1022.35 1022.70 1022.98 1023.25
1030.84 1030.94 1031.06 1031.19 1031.38 1031.38 1031.19 1031.29 1031.23 1031.33 1031.19 1030.87 1030.74 1030.28 1029.80 1029.79 1029.04 1028.58 1028.34 1027.70 1027.11 1026.67 1026.29 1026.01 1025.34 1023.84 1021.97 1022.34 1021.37 1021.36 1021.37 1021.56 1021.48 1021.28 1021.23 1021.49 1021.60 1021.74 1021.93 1022.25 1022.55 1022.81 1023.08
1030.75 1030.96 1031.16 1031.27 1031.33 1031.41 1031.55 1031.65 1031.68 1031.51 1031.25 1031.22 1031.05 1030.53 1030.40 1029.80 1029.48 1029.08 1028.70 1028.11 1027.81 1027.27 1026.64 1026.52 1026.60 1024.55 1023.55 1023.41 1022.67 1021.64 1021.54 1021.76 1021.78 1021.74 1021.59 1021.61 1021.63 1021.70 1021.85 1021.96 1022.23 1022.50 1022.79
1030.69 1030.88 1031.04 1031.25 1031.39 1031.54 1031.48 1031.58 1031.62 1031.54 1031.54 1031.59 1031.36 1031.20 1030.75 1030.21 1029.89 1029.44 1028.96 1028.64 1028.52 1027.84 1027.76 1027.59 1026.76 1026.99 1025.55 1023.68 1023.65 1023.06 1022.11 1022.34 1022.25 1021.96 1021.88 1021.84 1021.84 1021.78 1021.75 1021.82 1022.00 1022.14 1022.45
1030.40 1030.66 1030.88 1031.09 1031.22 1031.41 1031.61 1031.78 1031.86 1032.02 1032.12 1032.14 1032.07 1031.73 1031.15 1030.72 1030.40 1030.03 1029.99 1029.62 1029.31 1028.73 1028.48 1028.14 1027.52 1026.58 1026.04 1025.42 1024.23 1023.74 1022.93 1023.16 1023.04 1022.76 1022.22 1021.99 1022.10 1021.99 1021.65 1021.74 1021.79 1022.05 1022.18
1030.06 1030.40 1030.69 1030.98 1031.19 1031.41 1031.62 1031.88 1032.04 1032.20 1032.29 1032.29 1032.15 1031.85 1031.48 1031.20 1030.87 1030.80 1030.36 1030.11 1029.73 1029.43 1028.73 1028.67 1027.75 1027.82 1027.57 1026.33 1025.94 1025.28 1023.85 1023.56 1023.48 1023.42 1023.05 1022.46 1022.24 1021.86 1021.62 1021.42 1021.61 1021.74 1021.98
1029.86 1030.25 1030.65 1030.91 1031.17 1031.48 1031.69 1031.81 1031.82 1032.02 1032.17 1032.23 1032.19 1032.01 1031.69 1031.45 1031.23 1031.06 1030.70 1030.57 1030.08 1029.34 1029.47 1028.48 1027.55 1028.27 1027.30 1027.68 1026.80 1026.06 1025.58 1025.16 1024.25 1023.93 1023.52 1022.64 1022.20 1021.62 1021.57 1021.56 1021.57 1021.58 1021.77
Wind_Speed
6 8 20 22 23 24 24 25 26 26 26 26 23 20 18 15 11 6 6 6 6 7 9 13 14 16 16 17 18 20 20 20 20 19 19 16 17 17 17 16 14 12 18
5 9 20 22 22 22 23 23 24 24 24 25 26 23 19 17 14 8 6 6 2 7 9 13 13 16 17 17 18 18 19 18 17 16 14 13 14 15 14 13 15 13 15
8 10 9 20 20 21 22 23 23 23 23 23 24 25 23 19 16 10 6 5 6 7 9 13 14 15 16 15 15 18 16 16 15 13 11 5 6 12 11 11 11 13 13
8 8 9 19 19 19 21 22 23 23 23 22 23 23 24 23 16 13 8 4 4 6 10 13 14 13 12 13 13 14 15 14 13 12 5 5 5 10 9 9 11 12 12
8 7 10 19 19 19 21 21 22 22 23 22 22 23 23 24 22 18 13 3 2 5 9 13 12 10 10 10 10 10 14 13 11 9 6 5 4 8 10 10 9 10 11
7 8 13 18 19 19 20 22 22 22 22 23 23 22 23 23 23 22 16 8 3 5 6 10 11 9 8 10 12 14 13 12 10 7 5 5 4 8 8 10 9 9 11
6 7 10 19 19 19 20 21 22 22 22 22 23 22 22 23 22 22 22 16 4 8 9 11 10 9 8 9 9 12 12 10 6 5 5 3 5 8 9 8 11 10 11
6 6 7 15 18 17 19 21 21 22 22 21 22 23 23 23 23 24 22 21 16 7 8 12 11 9 8 9 9 9 12 8 5 5 5 2 7 8 8 9 10 11 10
6 6 6 5 11 15 16 19 20 21 22 21 21 22 23 22 23 24 24 23 21 14 8 10 12 10 7 10 10 10 9 8 5 3 3 2 8 8 8 10 9 12 12
6 6 7 6 7 7 5 19 20 21 22 21 21 20 21 21 22 23 24 24 22 22 13 10 12 10 9 9 9 9 9 8 5 3 2 2 9 8 10 8 10 11 9
5 5 6 8 9 8 7 11 14 18 22 21 18 21 13 9 13 16 20 24 23 24 20 9 12 11 8 9 9 8 10 3 4 3 2 5 8 9 10 9 9 10 9
6 6 6 6 8 9 9 10 10 9 7 9 12 12 10 10 10 13 16 21 22 24 22 22 14 12 8 4 4 6 4 5 3 3 3 7 8 10 10 9 9 7 9
4 4 7 7 6 7 7 5 5 5 5 5 11 11 8 7 8 7 8 8 9 16 9 13 7 6 6 4 4 4 5 5 3 2 4 9 8 9 9 9 8 8 8
4 5 6 6 8 9 5 5 4 5 6 7 8 10 8 7 9 8 7 9 9 7 10 9 7 8 6 6 6 6 5 4 3 3 3 7 10 10 10 10 9 8 8
5 5 6 8 8 8 8 6 6 7 5 6 7 9 7 9 9 8 7 8 9 8 8 9 9 7 5 6 6 6 6 6 5 3 2 7 10 10 11 9 9 10 8
4 5 5 6 6 7 7 8 6 6 6 6 6 7 9 8 7 7 8 8 10 11 9 9 10 10 3 3 6 6 6 5 6 5 3 4 10 10 9 9 10 9 9
3 5 6 6 6 6 5 5 5 6 6 6 6 8 9 9 8 7 6 7 7 9 12 9 10 10 7 2 3 4 5 6 6 6 5 3 5 10 9 11 11 10 9
4 5 5 5 5 5 5 4 4 4 4 5 6 6 10 9 9 7 6 7 9 8 9 8 8 8 8 5 2 4 4 6 6 6 5 4 4 4 7 9 10 11 10
5 5 5 5 5 5 4 3 4 5 4 4 4 5 8 9 10 7 6 6 8 7 8 9 8 8 8 7 2 3 3 5 7 5 6 6 6 5 4 6 9 8 9
5 5 5 4 5 4 3 3 3 3 4 3 4 5 8 7 8 7 6 6 8 7 9 9 11 8 7 11 2 1 2 2 4 6 6 5 5 6 5 5 5 4 8
4 5 4 4 3 3 4 3 3 2 3 4 4 7 8 7 9 8 6 7 8 8 9 12 10 9 6 10 2 2 2 3 3 4 4 4 6 6 6 5 3 3 4
6 5 5 4 3 3 2 1 0 1 2 2 4 6 8 9 9 8 8 8 9 7 9 11 12 7 4 7 5 0 1 2 3 3 2 4 6 4 5 6 6 6 6
7 7 6 5 4 3 3 2 2 2 2 3 4 5 6 9 9 9 10 9 8 7 7 7 11 11 6 3 12 4 3 2 3 1 4 3 5 4 4 5 6 6 7
8 6 6 6 5 3 3 3 3 2 2 2 2 3 5 7 8 9 8 8 8 6 6 7 7 8 10 8 6 9 2 1 2 4 2 3 4 6 7 5 6 6 6
8 7 6 6 5 4 4 4 3 3 1 1 2 5 6 5 6 7 8 8 7 5 7 6 8 8 5 6 6 7 6 2 1 1 3 4 2 5 5 6 6 6 6
7 7 6 6 5 5 5 4 5 4 2 3 3 3 4 3 4 6 8 7 7 8 8 8 8 7 6 5 5 8 6 4 5 2 3 4 4 3 4 4 5 6 5
Wind_Direction
330 323 5 11 11 11 12 13 15 16 18 14 11 17 15 7 10 40 34 39 52 84 94 99 97 95 90 90 87 86 76 67 62 52 45 59 70 64 64 57 48 66 72
310 350 11 10 9 11 13 13 14 15 16 16 13 10 9 4 357 5 24 29 56 116 111 105 107 107 102 94 88 81 79 73 66 55 47 42 56 63 62 64 67 62 62
17 360 360 14 10 10 14 16 14 15 13 14 14 12 7 2 359 354 8 52 70 121 116 111 111 109 107 99 94 96 91 89 83 70 55 43 60 67 71 74 71 75 76
32 1 353 16 15 15 16 13 16 13 13 13 13 13 11 5 1 358 3 39 91 127 126 113 111 112 105 104 103 103 104 98 90 79 61 44 49 59 69 73 73 73 79
43 10 15 23 17 15 17 14 13 16 13 12 13 10 11 9 3 3 8 48 86 131 133 122 120 119 108 93 95 136 113 105 93 82 72 59 53 64 71 70 73 80 84
35 29 21 29 20 18 15 13 12 13 15 12 12 10 10 10 9 3 358 7 159 146 137 124 133 129 109 101 96 115 117 111 99 91 72 61 78 92 85 86 84 79 82
40 27 24 31 25 17 17 16 11 10 14 15 10 9 10 11 10 8 3 358 305 182 158 140 146 145 125 102 96 129 125 116 109 106 98 84 96 104 97 100 88 86 83
54 42 30 27 31 23 20 16 14 10 12 13 13 12 12 10 6 8 7 0 341 271 195 155 156 158 143 111 93 139 133 126 110 118 116 151 106 116 109 107 105 97 96
41 35 31 25 23 20 22 20 18 15 12 13 15 15 11 10 9 5 5 5 353 331 230 184 164 160 156 121 103 125 125 125 121 123 119 127 127 118 113 95 98 99 92
43 27 17 20 17 1 18 17 18 16 14 11 8 9 10 10 6 3 0 3 3 351 327 187 173 169 163 130 117 130 135 124 125 125 103 137 121 117 97 95 90 98 96
29 37 19 16 15 7 19 11 15 15 8 5 5 2 8 2 360 357 355 357 5 4 348 239 184 166 168 144 124 129 143 147 145 149 150 151 127 111 104 102 101 99 103
21 6 15 24 15 9 11 8 6 7 359 355 1 359 359 6 358 1 353 358 356 2 1 347 181 169 149 138 121 123 148 155 167 176 171 149 130 126 120 115 105 111 109
29 22 10 14 15 21 12 7 6 355 356 357 5 356 350 358 351 1 350 353 351 355 3 350 316 168 169 156 147 151 156 161 168 198 192 159 142 146 129 128 128 124 123
52 24 13 22 20 15 12 11 5 9 0 7 359 353 2 8 3 355 2 352 347 345 355 349 333 324 184 164 155 166 169 175 168 181 209 172 144 144 151 146 144 139 135
83 56 29 26 18 9 8 358 10 11 1 348 354 349 1 11 5 350 354 353 342 339 353 353 326 320 270 164 159 168 178 173 176 172 175 173 152 163 162 172 171 154 162
93 70 58 58 32 12 8 1 2 1 351 358 351 348 356 16 2 5 349 5 0 344 347 342 342 330 291 261 177 170 178 168 165 169 180 181 158 166 175 177 187 180 170
90 74 47 58 37 29 13 6 0 358 355 355 353 357 359 13 3 5 353 353 356 344 331 341 341 349 345 302 229 177 163 170 168 168 175 184 172 162 185 188 188 177 180
113 91 76 57 38 26 15 14 8 3 350 350 350 354 6 4 3 6 2 356 342 340 339 341 343 339 340 321 256 215 187 169 169 169 169 176 174 166 186 198 190 185 192
137 120 80 61 45 32 9 20 21 15 6 350 344 0 2 359 1 4 358 352 345 354 345 333 333 339 327 316 244 229 230 185 177 166 176 180 180 176 181 188 189 194 203
143 119 104 75 39 20 9 32 38 32 13 358 351 8 7 356 2 357 357 352 0 7 345 337 334 334 333 342 234 74 315 266 188 178 181 176 185 182 191 177 179 184 212
153 129 109 98 51 42 23 5 7 11 351 14 1 3 10 359 5 12 2 4 3 6 8 351 329 325 10 356 354 68 31 348 255 205 177 187 189 194 184 182 198 174 198
171 157 142 124 91 63 70 56 355 331 350 350 342 356 360 7 8 13 10 6 360 3 15 2 343 339 346 359 339 310 113 4 305 266 250 201 204 191 195 194 189 199 208
184 178 169 158 140 113 83 56 30 30 12 352 350 358 353 5 3 9 9 6 354 5 5 3 2 345 336 331 339 297 11 357 318 350 266 259 225 203 207 200 202 200 209
199 181 172 162 148 131 106 89 85 91 64 353 319 325 352 4 3 7 2 3 359 355 4 348 356 7 350 349 333 2 351 275 347 327 314 284 270 244 210 215 205 208 200
174 182 180 165 153 141 128 126 122 108 103 339 352 359 356 357 4 5 1 358 360 357 346 344 0 349 350 350 344 329 332 316 241 199 296 307 305 248 241 220 213 209 207
178 171 178 176 175 164 157 146 124 110 94 46 13 8 354 350 349 4 10 356 346 354 346 338 350 334 0 339 343 347 334 338 343 289 268 280 238 260 235 228 226 226 208